Location: Strawberry
(45.6646°N, 111.9596°W)
Time: 19:09:41
(UTC+00:00)

Vanguard 1 Rocket - Pass Details

Date: 05 October 2022
Orbit: 650 x 4225 km, 34.3° (Epoch: 01 December)

Event Time Altitude Azimuth Distance (km) Brightness Sun altitude
Rises 07:40:21 0° 274° (W) 6,219 11.6 -48.8°
Enters shadow 07:43:28 - 269° (W) 5,293 11.2 -48.7°
Reaches altitude 10° 07:46:04 10° 263° (W) 4,518 - -48.6°
Maximum altitude 07:54:16 24° 216° (SW) 2,552 - -48.3°
Drops below altitude 10° 07:59:35 10° 165° (SSE) 2,810 - -48.0°
Sets 08:02:12 0° 149° (SSE) 3,469 - -47.9°
